• MPC Preparation (Info)

  • MPEC 2000-P49 : 2000 PP9

    The following Minor Planet Electronic Circular may be linked-to from your own Web pages, but must not otherwise be redistributed electronically.

    A form allowing access to any MPEC is at the bottom of this page.


    Read MPEC 2000-P48 Read MPEC 2000-P50


    M.P.E.C. 2000-P49                                Issued 2000 Aug. 12, 20:00 UT
    
         The Minor Planet Electronic Circulars contain information on unusual
             minor planets and routine data on comets.  They are published
       on behalf of Commission 20 of the International Astronomical Union by the
              Minor Planet Center, Smithsonian Astrophysical Observatory,
                              Cambridge, MA 02138, U.S.A.
    
                 Prepared using the Tamkin Foundation Computer Network
    
                                  MPC@CFA.HARVARD.EDU
              URL http://cfa-www.harvard.edu/iau/mpc.html  ISSN 1523-6714
    
                                       2000 PP9
    
    Observations:
         K00P09P* C2000 08 09.31073 23 30 32.33 +41 11 12.4          16.6        704
         K00P09P  C2000 08 09.32496 23 30 46.14 +41 11 10.4          16.7        704
         K00P09P  C2000 08 09.33911 23 30 59.80 +41 11 08.2          16.5        704
         K00P09P  C2000 08 09.35335 23 31 13.55 +41 11 04.9          16.6        704
         K00P09P  C2000 08 09.36749 23 31 27.16 +41 11 01.5          16.7        704
         K00P09P  C2000 08 10.01179 23 42 15.75 +41 05 03.3                      557
         K00P09P  C2000 08 10.01308 23 42 16.98 +41 05 02.5                      557
         K00P09P  C2000 08 10.01373 23 42 17.61 +41 05 02.1                      557
         K00P09P  C2000 08 10.01438 23 42 18.24 +41 05 01.6          15.8 V      557
         K00P09P  C2000 08 10.05909 23 43 01.38 +41 04 33.5          15.7 R      046
         K00P09P  C2000 08 10.06015 23 43 02.41 +41 04 32.8                      046
         K00P09P  C2000 08 10.06073 23 43 02.97 +41 04 32.3                      046
         K00P09P  C2000 08 10.06123 23 43 03.45 +41 04 31.9                      046
         K00P09P  C2000 08 10.91461 23 57 13.45 +40 50 19.3                      557
         K00P09P  C2000 08 10.91814 23 57 16.84 +40 50 15.9                      557
         K00P09P  C2000 08 10.91885 23 57 17.51 +40 50 15.2                      557
         K00P09P  C2000 08 10.93028 23 57 29.05 +40 50 03.6          17.2 V      151
         K00P09P  C2000 08 10.93123 23 57 29.99 +40 50 02.9          16.8 V      151
         K00P09P  C2000 08 10.93148 23 57 30.44 +40 50 12.6          16.6 R      157
         K00P09P  C2000 08 10.93163 23 57 30.34 +40 50 02.3          16.9 V      151
         K00P09P  C2000 08 10.93259 23 57 31.27 +40 50 01.3          16.7 V      151
         K00P09P  C2000 08 10.93402 23 57 32.61 +40 50 00.0          16.9 V      151
         K00P09P  C2000 08 10.93683 23 57 35.32 +40 49 57.1          16.8 V      151
         K00P09P  C2000 08 10.93831 23 57 36.92 +40 50 06.1          16.6 R      157
         K00P09P  C2000 08 10.94410 23 57 42.46 +40 50 00.5          16.6 R      157
         K00P09P  C2000 08 10.94745 23 57 45.60 +40 49 56.6          16.7 R      157
         K00P09P  C2000 08 10.95093 23 57 48.91 +40 49 52.6          16.4 R      157
         K00P09P  C2000 08 10.99317 23 58 28.30 +40 48 58.2          16.0 R      046
         K00P09P  C2000 08 10.99438 23 58 29.45 +40 48 56.7                      046
         K00P09P  C2000 08 10.99487 23 58 29.91 +40 48 56.0                      046
         K00P09P  C2000 08 10.99532 23 58 30.32 +40 48 55.6                      046
         K00P09P  C2000 08 10.99697 23 58 31.64 +40 48 55.5          15.9 R      118
         K00P09P  C2000 08 10.99975 23 58 34.27 +40 48 52.2                      118
         K00P09P  C2000 08 11.00218 23 58 38.75 +40 48 58.0                      952
         K00P09P  C2000 08 11.00856 23 58 42.57 +40 48 41.9                      118
         K00P09P  C2000 08 11.01125 23 58 47.40 +40 48 48.3          16.1        952
         K00P09P  C2000 08 11.01350 23 58 49.47 +40 48 45.8          16.2        952
         K00P09P  C2000 08 11.02316 23 58 58.66 +40 48 35.4                      952
         K00P09P  C2000 08 11.24346 00 02 35.17 +40 42 59.1                      642
         K00P09P  C2000 08 11.24449 00 02 36.38 +40 42 55.8                      642
         K00P09P  C2000 08 11.24553 00 02 37.18 +40 42 55.7                      642
         K00P09P  C2000 08 11.24656 00 02 38.27 +40 42 54.8                      642
         K00P09P  C2000 08 11.29993 00 03 27.52 +40 42 23.4          16.4 V      734
         K00P09P  C2000 08 11.30228 00 03 29.68 +40 42 20.2          16.4 V      734
         K00P09P  C2000 08 11.30345 00 03 30.79 +40 42 18.9          16.4 V      734
         K00P09P  C2000 08 11.30469 00 03 31.94 +40 42 17.3          16.4 V      734
         K00P09P  C2000 08 11.37414 00 04 37.57 +40 40 50.4          16.1        704
         K00P09P  C2000 08 11.38864 00 04 51.07 +40 40 30.0          17.0        704
         K00P09P  C2000 08 11.40317 00 05 04.30 +40 40 08.8          17.1        704
         K00P09P  C2000 08 11.43228 00 05 31.03 +40 39 24.8          17.3        704
         K00P09P  C2000 08 11.86226 00 12 29.39 +40 26 54.3                      557
         K00P09P  C2000 08 11.86582 00 12 32.75 +40 26 49.4                      557
         K00P09P  C2000 08 11.86652 00 12 33.40 +40 26 48.4                      557
         K00P09P  C2000 08 11.88682 00 12 52.73 +40 26 12.6          15.8 R      163
         K00P09P  C2000 08 11.88757 00 12 53.45 +40 26 11.5          15.7 R      163
         K00P09P  C2000 08 11.88808 00 12 53.95 +40 26 10.6          15.5 R      163
         K00P09P  C2000 08 11.88817 00 12 54.19 +40 26 14.9          16.7 V      151
         K00P09P  C2000 08 11.88832 00 12 54.15 +40 26 10.1          15.6 R      163
         K00P09P  C2000 08 11.88883 00 12 54.63 +40 26 09.6          15.7 R      163
         K00P09P  C2000 08 11.88936 00 12 55.31 +40 26 13.0          16.8 V      151
         K00P09P  C2000 08 11.89395 00 12 59.58 +40 26 06.6          16.7 V      151
         K00P09P  C2000 08 11.89544 00 13 01.02 +40 26 04.3          16.7 V      151
         K00P09P  C2000 08 11.89750 00 13 02.88 +40 26 02.6          16.4 V      151
         K00P09P  C2000 08 11.90286 00 13 07.95 +40 25 53.7          16.8 V      151
         K00P09P  C2000 08 11.90390 00 13 08.92 +40 25 52.0          16.8 V      151
         K00P09P  C2000 08 11.90493 00 13 09.90 +40 25 50.6          16.8 V      151
         K00P09P  C2000 08 11.92426 00 13 27.73 +40 25 19.2                      611
         K00P09P  C2000 08 11.92567 00 13 29.03 +40 25 17.1                      611
         K00P09P  C2000 08 11.92653 00 13 29.76 +40 25 15.6                      611
         K00P09P  C2000 08 11.92817 00 13 31.32 +40 25 13.4                      611
         K00P09P  C2000 08 11.92976 00 13 32.84 +40 25 10.4                      611
    
    Observer details:
    046 Klet.  Observers Z. Moravec, P. Jelinek.  0.57-m f/5.2 reflector + CCD.
    118 Modra.  Observers S. Gajdos, J. Toth.  0.6-m f/5.5 reflector + CCD.
    151 Eschenberg Observatory, Winterthur.  Observer M. Griesser.  0.25-m f/8.0
        reflector + CCD.
    157 Frasso Sabino.  Observers R. Haver, R. Gorelli.  0.2-m f/6.3
        Schmidt-Cassegrain + CCD.
    163 Roeser Observatory, Luxembourg.  Observer M. Dawson.  0.457-m f/4.5
        reflector + CCD.
    557 Ondrejov.  Observers L. Sarounova, V. Havlicek.  0.65-m f/3.6 reflector
        + CCD.
    611 Starkenburg.  Observers S. Kluegl, M. Busch, R. Stoss.  0.45-m f/4.4
        reflector + CCD.
    642 Oak Bay, Victoria.  Observer C. E. Spratt.  0.20-m f/3.7 Schmidt-Cassegrain
        + CCD.
    704 Lincoln Laboratory ETS, New Mexico.  Observers M. Blythe, F. Shelly,
        M. Bezpalko, M. Elowitz, R. Huber, L. Manguso.  Measurers J. Stuart,
        R. Sayer, J. B. Evans, H. Viggh.  1.0-m f/2.15 reflector + CCD.
    734 Farpoint Observatory.  Observer G. Hug.  0.30-m Schmidt-Cassegrain + CCD.
    952 Marxuquera.  Observer J. J. Gomez.  0.25-m f/3.3 Schmidt-Cassegrain + CCD.
    
    Orbital elements:
    2000 PP9                                                             PHA 0.034
    Epoch 2000 Aug. 4.0 TT = JDT 2451760.5                  Hergenrother
    M 355.73836              (2000.0)            P               Q
    n   0.27697063     Peri.  159.39627     +0.87775573     +0.47891532
    a   2.3308459      Node   171.94869     -0.45204709     +0.83724974
    e   0.5515836      Incl.    5.57276     -0.15873971     +0.26391855
    P   3.56           H   19.4           G   0.15
    From 71 observations 2000 Aug. 9-11.
    
    Ephemeris:
    2000 PP9                 a,e,i = 2.33, 0.55, 6                   q = 1.0452
    Date    TT    R. A. (2000) Decl.     Delta      r     Elong.  Phase     V
    2000 08 04    22 03.17   +39 16.2    0.087    1.063   121.5    54.5    16.2
    2000 08 14    00 44.72   +39 09.6    0.088    1.047   110.7    64.8    16.5
    2000 08 24    02 28.80   +29 39.9    0.109    1.047   106.2    68.1    17.1
    2000 09 03    03 17.19   +21 13.8    0.140    1.061   108.3    64.5    17.5
    2000 09 13    03 39.36   +15 11.7    0.173    1.089   114.3    57.4    17.9
    2000 09 23    03 47.45   +10 46.3    0.207    1.129   122.7    48.4    18.1
    2000 10 03    03 46.07   +07 24.2    0.243    1.179   132.9    38.4    18.2
    2000 10 13    03 38.31   +04 53.7    0.283    1.238   144.0    28.3    18.4
    2000 10 23    03 27.01   +03 12.8    0.331    1.302   154.9    18.9    18.5
    2000 11 02    03 14.96   +02 20.5    0.390    1.371   163.3    12.0    18.8
    2000 11 12    03 04.70   +02 13.1    0.464    1.442   164.5    10.6    19.2
    2000 11 22    02 57.65   +02 41.4    0.553    1.515   158.2    14.0    19.8
    2000 12 02    02 54.33   +03 35.7    0.659    1.590   149.7    18.3    20.4
    2000 12 12    02 54.67   +04 47.0    0.780    1.664   141.0    21.9    21.0
    2000 12 22    02 58.16   +06 07.9    0.915    1.738   132.6    24.6    21.5
    2001 01 01    03 04.32   +07 33.7    1.062    1.812   124.6    26.5    22.0
    2001 01 11    03 12.68   +09 00.6    1.221    1.885   117.1    27.7    22.4
    2001 01 21    03 22.78   +10 25.9    1.389    1.956   109.8    28.2    22.8
    
    Carl W. Hergenrother         (C) Copyright 2000 MPC           M.P.E.C. 2000-P49
    

    Read MPEC 2000-P48 Read MPEC 2000-P50


    MPEC number:

    Enter an MPEC number in one of the following forms:

    • 1997-B01 (the full form)
    • J97B01 (the packed version of the full form)
    • B01 (the abbreviated form)